GOES-S [+]

Last updated on Wed Sep 09 2020 05:41:48 GMT+0000 (Coordinated Universal Time)

1 43226U 18022A 20252.72425118 .00000096 00000-0 00000-0 0 9996 2 43226 0.0715 290.1318 0000367 248.0365 293.6308 1.00270229 9283
UTC large
Height (km)
Speed (km/s)
/
Latitude / Longitude
Inclination (degrees)
Orbital Period (minutes)
Azimuth
Elevation
Range (km)
Doppler Factor

Next 0 passes for location: London (51.5072 / 0.1276)

Sorry there are no passes over London.